Flag for Greenland Weather past 2 weeks in Nuuk, Greenland

Now
9 °F

Passing clouds.


Feels Like: -9 °F
Forecast: 3 / 8 °F
Wind: 16 mph from North

Location: Godthaab / Nuuk

Current Time: Mar 4, 2015 at 6:47:09 AM

Latest Report: Mar 4, 2015 at 5:50 AM


Visibility: N/A

Pressure: 28.85 "Hg

Humidity: 78%

Dew point: 3 °F

Location of NuukLocation

Historic Weather in Nuuk — Graph

°F

Nuuk temperature yesterday

Maximum temperature yesterday: 12 °F (at 10:50 AM)
Minimum temperature yesterday: 5 °F (at 10:50 PM)
Average temperature yesterday: 10 °F

Past Weeks' High & Low Weather Summary

 TemperatureHumidityPressure
High21 °F (Feb 17, 8:50 PM)92% (Feb 18, 7:50 PM)30.15 "Hg (Feb 18, 7:50 PM)
Low0 °F (Feb 22, 6:50 PM)44% (Feb 21, 7:50 PM)28.85 "Hg (Mar 4, 5:50 AM)
Average10 °F74%29.47 "Hg
* Reported Feb 17 5:50 AM — Mar 4 5:50 AM, Nuuk, Weather by CustomWeather, © 2015

Note: Actual official high and low records may vary slightly from our data, if they occured in-between our weather recording intervals... More about our weather records

Advertising

Nuuk weather history for previous 24 hours

 ConditionsComfort  
Time TempWeatherWind HumidityBarometerVisibility
5:50 AM
Wed, Mar 4
9 °FPassing clouds.16 mph78%28.85 "HgN/A
4:50 AM9 °FPassing clouds.14 mph78%28.88 "HgN/A
3:50 AM9 °FPassing clouds.15 mph78%28.91 "HgN/A
2:50 AM9 °FPassing clouds.13 mph78%28.94 "HgN/A
1:50 AM9 °FPassing clouds.16 mph72%28.97 "HgN/A
12:50 AM9 °FPartly cloudy.16 mph78%29.00 "HgN/A
11:50 PM
Tue, Mar 3
9 °FPassing clouds.15 mph78%29.03 "HgN/A
10:50 PM5 °FPassing clouds.18 mph85%29.09 "HgN/A
9:50 PM9 °FPassing clouds.15 mph72%29.15 "HgN/A
8:50 PM9 °FLow level haze.16 mph78%29.18 "HgN/A
7:50 PM10 °FPassing clouds.16 mph79%29.24 "HgN/A
6:50 PM10 °FPassing clouds.20 mph79%29.27 "HgN/A
5:50 PM10 °FPassing clouds.16 mph79%29.33 "HgN/A
4:50 PM12 °FPartly sunny.14 mph67%29.36 "HgN/A
3:50 PM12 °FLight snow. Partly sunny.15 mph73%29.39 "HgN/A
2:50 PM12 °FLight snow. Partly sunny.14 mph73%29.42 "HgN/A
1:50 PM12 °FSnow flurries. Broken clouds.7 mph73%29.45 "HgN/A
12:50 PM12 °FSnow flurries. Partly sunny.5 mph73%29.50 "HgN/A
11:50 AM12 °FBroken clouds.No wind73%29.53 "HgN/A
10:50 AM12 °FPartly sunny.6 mph73%29.53 "HgN/A
9:50 AM10 °FScattered showers. Partly sunny.5 mph79%29.56 "HgN/A
8:50 AM10 °FPartly sunny.2 mph72%29.59 "HgN/A
7:50 AM10 °FPartly sunny.3 mph72%29.59 "HgN/A
6:50 AM10 °FPassing clouds.7 mph72%29.59 "HgN/A
Weather by CustomWeather, © 2015

See weather overviewHow to use our weather pages